Time,TemperatureF,DewpointF,PressureIn,WindDirection,WindDirectionDegrees,WindSpeedMPH,WindSpeedGustMPH,Humidity,HourlyPrecipIn,Conditions,Clouds,dailyrainin,SoftwareType,DateUTC
2013-08-12 00:06:00,74.8,73.0,30.07,SSW,213,0.0,-999.0,95,-99.99,,,0.01,weatherlink.com 1.10,2013-08-12 05:06:00,
2013-08-12 00:21:00,74.5,73.0,30.07,SSW,213,0.0,-999.0,95,-99.99,,,0.01,weatherlink.com 1.10,2013-08-12 05:21:00,
2013-08-12 00:36:00,74.2,73.0,30.06,SSW,213,0.0,-999.0,95,-99.99,,,0.01,weatherlink.com 1.10,2013-08-12 05:36:00,
2013-08-12 00:51:00,74.1,73.0,30.07,SSW,213,0.0,-999.0,95,-99.99,,,0.01,weatherlink.com 1.10,2013-08-12 05:51:00,
2013-08-12 01:06:00,73.9,72.0,30.06,SSW,213,0.0,-999.0,95,-99.99,,,0.01,weatherlink.com 1.10,2013-08-12 06:06:00,
2013-08-12 01:21:00,73.7,72.0,30.05,SSW,213,0.0,-999.0,95,-99.99,,,0.01,weatherlink.com 1.10,2013-08-12 06:21:00,
2013-08-12 01:36:00,73.7,73.0,30.05,SSW,213,0.0,-999.0,96,-99.99,,,0.01,weatherlink.com 1.10,2013-08-12 06:36:00,
2013-08-12 01:51:00,73.5,72.0,30.05,SSW,213,0.0,-999.0,95,-99.99,,,0.01,weatherlink.com 1.10,2013-08-12 06:51:00,
2013-08-12 02:06:00,73.4,72.0,30.05,SSW,213,0.0,-999.0,96,-99.99,,,0.01,weatherlink.com 1.10,2013-08-12 07:06:00,
2013-08-12 02:21:00,73.3,72.0,30.04,SSW,213,0.0,-999.0,96,-99.99,,,0.00,weatherlink.com 1.10,2013-08-12 07:21:00,
2013-08-12 02:36:00,73.2,72.0,30.04,SSW,213,0.0,-999.0,96,-99.99,,,0.00,weatherlink.com 1.10,2013-08-12 07:36:00,
2013-08-12 02:51:00,73.1,72.0,30.04,SSW,213,0.0,-999.0,96,-99.99,,,0.00,weatherlink.com 1.10,2013-08-12 07:51:00,
2013-08-12 03:06:00,73.0,72.0,30.05,SSW,213,0.0,-999.0,96,-99.99,,,0.00,weatherlink.com 1.10,2013-08-12 08:06:00,
2013-08-12 03:21:00,73.0,72.0,30.05,SSW,213,0.0,-999.0,96,-99.99,,,0.00,weatherlink.com 1.10,2013-08-12 08:21:00,
2013-08-12 03:36:00,73.0,72.0,30.05,SSW,213,0.0,-999.0,96,-99.99,,,0.00,weatherlink.com 1.10,2013-08-12 08:36:00,
2013-08-12 03:51:00,72.9,72.0,30.05,SSW,213,0.0,-999.0,96,-99.99,,,0.00,weatherlink.com 1.10,2013-08-12 08:51:00,
2013-08-12 04:06:00,72.8,72.0,30.05,SSW,213,0.0,-999.0,96,-99.99,,,0.00,weatherlink.com 1.10,2013-08-12 09:06:00,
2013-08-12 04:21:00,72.7,72.0,30.05,SSW,213,0.0,-999.0,96,-99.99,,,0.00,weatherlink.com 1.10,2013-08-12 09:21:00,
2013-08-12 04:36:00,72.6,71.0,30.05,SSW,213,1.0,-999.0,96,-99.99,,,0.00,weatherlink.com 1.10,2013-08-12 09:36:00,
2013-08-12 04:51:00,72.6,71.0,30.05,SSW,213,0.0,-999.0,96,-99.99,,,0.00,weatherlink.com 1.10,2013-08-12 09:51:00,
2013-08-12 05:06:00,72.4,71.0,30.05,SW,214,0.0,-999.0,96,-99.99,,,0.00,weatherlink.com 1.10,2013-08-12 10:06:00,
2013-08-12 05:22:00,72.2,71.0,30.05,SSW,213,0.0,-999.0,96,-99.99,,,0.00,weatherlink.com 1.10,2013-08-12 10:22:00,
2013-08-12 05:37:00,72.1,71.0,30.06,SSW,213,0.0,-999.0,96,-99.99,,,0.00,weatherlink.com 1.10,2013-08-12 10:37:00,
2013-08-12 05:52:00,71.9,71.0,30.06,SSW,213,0.0,-999.0,96,-99.99,,,0.00,weatherlink.com 1.10,2013-08-12 10:52:00,
2013-08-12 06:07:00,71.8,71.0,30.06,SSW,213,0.0,-999.0,96,-99.99,,,0.00,weatherlink.com 1.10,2013-08-12 11:07:00,
2013-08-12 06:22:00,71.7,71.0,30.06,SSW,213,0.0,-999.0,96,-99.99,,,0.00,weatherlink.com 1.10,2013-08-12 11:22:00,
2013-08-12 06:37:00,71.7,71.0,30.07,SSW,213,0.0,-999.0,96,-99.99,,,0.00,weatherlink.com 1.10,2013-08-12 11:37:00,
2013-08-12 06:52:00,71.9,71.0,30.07,SSW,213,0.0,-999.0,97,-99.99,,,0.00,weatherlink.com 1.10,2013-08-12 11:52:00,
2013-08-12 07:07:00,72.1,71.0,30.06,SSW,205,0.0,-999.0,97,-99.99,,,0.00,weatherlink.com 1.10,2013-08-12 12:07:00,
2013-08-12 07:22:00,72.7,72.0,30.06,SSW,206,0.0,-999.0,97,-99.99,,,0.00,weatherlink.com 1.10,2013-08-12 12:22:00,
2013-08-12 07:37:00,73.3,72.0,30.07,SSW,206,0.0,-999.0,97,-99.99,,,0.00,weatherlink.com 1.10,2013-08-12 12:37:00,
2013-08-12 07:52:00,74.1,73.0,30.07,SSW,195,0.0,-999.0,97,-99.99,,,0.00,weatherlink.com 1.10,2013-08-12 12:52:00,
2013-08-12 08:07:00,74.8,74.0,30.07,SSE,157,0.0,-999.0,96,-99.99,,,0.00,weatherlink.com 1.10,2013-08-12 13:07:00,
2013-08-12 08:22:00,75.7,74.0,30.07,WSW,250,0.0,-999.0,95,-99.99,,,0.00,weatherlink.com 1.10,2013-08-12 13:22:00,
2013-08-12 08:37:00,76.9,75.0,30.07,SW,222,0.0,-999.0,93,-99.99,,,0.00,weatherlink.com 1.10,2013-08-12 13:37:00,
2013-08-12 08:52:00,78.2,75.0,30.07,SW,224,1.0,-999.0,91,-99.99,,,0.00,weatherlink.com 1.10,2013-08-12 13:52:00,
2013-08-12 09:07:00,78.7,75.0,30.07,West,281,1.0,-999.0,89,-99.99,,,0.00,weatherlink.com 1.10,2013-08-12 14:07:00,
2013-08-12 09:22:00,80.2,76.0,30.06,WSW,252,0.0,-999.0,88,-99.99,,,0.00,weatherlink.com 1.10,2013-08-12 14:22:00,
2013-08-12 09:37:00,81.5,77.0,30.06,South,171,1.0,-999.0,85,-99.99,,,0.00,weatherlink.com 1.10,2013-08-12 14:37:00,
2013-08-12 09:52:00,82.1,77.0,30.06,WSW,246,0.0,-999.0,83,-99.99,,,0.00,weatherlink.com 1.10,2013-08-12 14:52:00,
2013-08-12 10:07:00,83.0,77.0,30.06,West,267,2.0,-999.0,82,-99.99,,,0.00,weatherlink.com 1.10,2013-08-12 15:07:00,
2013-08-12 10:22:00,83.6,76.0,30.07,South,182,1.0,-999.0,78,-99.99,,,0.00,weatherlink.com 1.10,2013-08-12 15:22:00,
2013-08-12 10:37:00,84.0,77.0,30.07,WSW,250,0.0,-999.0,79,-99.99,,,0.00,weatherlink.com 1.10,2013-08-12 15:37:00,
2013-08-12 10:52:00,84.6,76.0,30.07,East,89,0.0,-999.0,75,-99.99,,,0.00,weatherlink.com 1.10,2013-08-12 15:52:00,
2013-08-12 11:07:00,84.2,76.0,30.07,SW,228,1.0,-999.0,75,-99.99,,,0.00,weatherlink.com 1.10,2013-08-12 16:07:00,
2013-08-12 11:22:00,85.0,76.0,30.06,WSW,246,3.0,-999.0,74,-99.99,,,0.00,weatherlink.com 1.10,2013-08-12 16:22:00,
2013-08-12 11:37:00,85.2,76.0,30.05,WNW,293,2.0,-999.0,74,-99.99,,,0.00,weatherlink.com 1.10,2013-08-12 16:37:00,
2013-08-12 11:52:00,84.6,76.0,30.04,WSW,241,3.0,-999.0,76,-99.99,,,0.00,weatherlink.com 1.10,2013-08-12 16:52:00,
2013-08-12 12:07:00,85.2,76.0,30.04,West,259,3.0,-999.0,74,-99.99,,,0.00,weatherlink.com 1.10,2013-08-12 17:07:00,
2013-08-12 12:22:00,85.9,76.0,30.03,SW,236,0.0,-999.0,71,-99.99,,,0.00,weatherlink.com 1.10,2013-08-12 17:22:00,
2013-08-12 12:37:00,86.1,76.0,30.03,WNW,300,4.0,-999.0,72,-99.99,,,0.00,weatherlink.com 1.10,2013-08-12 17:37:00,
2013-08-12 12:53:00,86.8,76.0,30.02,WSW,244,3.0,-999.0,71,-99.99,,,0.00,weatherlink.com 1.10,2013-08-12 17:53:00,
2013-08-12 13:08:00,87.4,76.0,30.01,SSW,198,4.0,-999.0,68,-99.99,,,0.00,weatherlink.com 1.10,2013-08-12 18:08:00,
2013-08-12 13:23:00,87.6,75.0,30.00,WSW,254,0.0,-999.0,67,-99.99,,,0.00,weatherlink.com 1.10,2013-08-12 18:23:00,
2013-08-12 13:38:00,86.9,75.0,29.99,West,273,1.0,-999.0,68,-99.99,,,0.00,weatherlink.com 1.10,2013-08-12 18:38:00,
2013-08-12 13:53:00,87.0,76.0,29.99,WSW,257,1.0,-999.0,69,-99.99,,,0.00,weatherlink.com 1.10,2013-08-12 18:53:00,
2013-08-12 14:23:00,88.4,76.0,29.98,NE,51,1.0,-999.0,66,-99.99,,,0.00,weatherlink.com 1.10,2013-08-12 19:23:00,
2013-08-12 14:38:00,88.6,77.0,29.98,West,273,3.0,-999.0,68,-99.99,,,0.00,weatherlink.com 1.10,2013-08-12 19:38:00,
2013-08-12 14:53:00,88.5,76.0,29.97,WNW,294,4.0,-999.0,66,-99.99,,,0.00,weatherlink.com 1.10,2013-08-12 19:53:00,
2013-08-12 15:08:00,88.5,75.0,29.96,West,280,0.0,-999.0,64,-99.99,,,0.00,weatherlink.com 1.10,2013-08-12 20:08:00,
2013-08-12 15:23:00,88.2,77.0,29.96,WSW,257,1.0,-999.0,70,-99.99,,,0.00,weatherlink.com 1.10,2013-08-12 20:23:00,
2013-08-12 15:38:00,86.8,77.0,29.96,SSW,211,0.0,-999.0,73,-99.99,,,0.00,weatherlink.com 1.10,2013-08-12 20:38:00,
2013-08-12 15:53:00,81.0,75.0,29.99,WSW,244,6.0,-999.0,83,-99.99,,,0.04,weatherlink.com 1.10,2013-08-12 20:53:00,
2013-08-12 16:08:00,76.6,73.0,29.97,SSE,150,12.0,-999.0,87,-99.99,,,0.04,weatherlink.com 1.10,2013-08-12 21:08:00,
2013-08-12 16:23:00,75.6,73.0,29.97,SSE,157,4.0,-999.0,90,-99.99,,,0.04,weatherlink.com 1.10,2013-08-12 21:23:00,
2013-08-12 16:38:00,76.9,74.0,29.96,East,85,1.0,-999.0,90,-99.99,,,0.04,weatherlink.com 1.10,2013-08-12 21:38:00,
2013-08-12 16:53:00,78.1,73.0,29.96,South,180,7.0,-999.0,85,-99.99,,,0.04,weatherlink.com 1.10,2013-08-12 21:53:00,
2013-08-12 17:08:00,79.6,75.0,29.95,SSW,197,0.0,-999.0,85,-99.99,,,0.04,weatherlink.com 1.10,2013-08-12 22:08:00,
2013-08-12 17:23:00,80.8,76.0,29.95,WSW,240,2.0,-999.0,84,-99.99,,,0.04,weatherlink.com 1.10,2013-08-12 22:23:00,
2013-08-12 17:38:00,81.2,75.0,29.94,SW,217,1.0,-999.0,82,-99.99,,,0.04,weatherlink.com 1.10,2013-08-12 22:38:00,
2013-08-12 17:53:00,81.7,77.0,29.95,SSE,166,0.0,-999.0,84,-99.99,,,0.04,weatherlink.com 1.10,2013-08-12 22:53:00,
2013-08-12 18:08:00,81.8,76.0,29.94,SSE,159,0.0,-999.0,83,-99.99,,,0.04,weatherlink.com 1.10,2013-08-12 23:08:00,
2013-08-12 18:23:00,81.4,76.0,29.94,South,186,2.0,-999.0,83,-99.99,,,0.04,weatherlink.com 1.10,2013-08-12 23:23:00,
2013-08-12 18:38:00,80.6,75.0,29.95,SSW,200,1.0,-999.0,84,-99.99,,,0.04,weatherlink.com 1.10,2013-08-12 23:38:00,
2013-08-12 18:53:00,79.8,76.0,29.95,SSW,203,0.0,-999.0,87,-99.99,,,0.04,weatherlink.com 1.10,2013-08-12 23:53:00,
2013-08-12 19:08:00,79.5,76.0,29.95,South,174,2.0,-999.0,88,-99.99,,,0.04,weatherlink.com 1.10,2013-08-13 00:08:00,
2013-08-12 19:23:00,79.2,75.0,29.95,SSW,201,1.0,-999.0,88,-99.99,,,0.04,weatherlink.com 1.10,2013-08-13 00:23:00,
2013-08-12 19:38:00,78.7,75.0,29.95,SW,220,1.0,-999.0,88,-99.99,,,0.04,weatherlink.com 1.10,2013-08-13 00:38:00,
2013-08-12 19:53:00,78.2,74.0,29.96,SW,220,0.0,-999.0,88,-99.99,,,0.04,weatherlink.com 1.10,2013-08-13 00:53:00,
2013-08-12 20:08:00,77.9,75.0,29.95,WSW,252,0.0,-999.0,89,-99.99,,,0.04,weatherlink.com 1.10,2013-08-13 01:08:00,
2013-08-12 20:23:00,77.4,74.0,29.96,SSW,200,0.0,-999.0,89,-99.99,,,0.04,weatherlink.com 1.10,2013-08-13 01:23:00,
2013-08-12 20:38:00,76.9,74.0,29.96,SSW,203,0.0,-999.0,90,-99.99,,,0.04,weatherlink.com 1.10,2013-08-13 01:38:00,
2013-08-12 20:53:00,76.6,74.0,29.96,SSW,206,2.0,-999.0,92,-99.99,,,0.04,weatherlink.com 1.10,2013-08-13 01:53:00,
2013-08-12 21:08:00,76.4,74.0,29.96,SSW,203,3.0,-999.0,92,-99.99,,,0.04,weatherlink.com 1.10,2013-08-13 02:08:00,
2013-08-12 21:23:00,76.1,74.0,29.97,West,262,1.0,-999.0,93,-99.99,,,0.04,weatherlink.com 1.10,2013-08-13 02:23:00,
2013-08-12 21:38:00,75.8,74.0,29.98,SW,231,0.0,-999.0,93,-99.99,,,0.04,weatherlink.com 1.10,2013-08-13 02:38:00,
2013-08-12 21:53:00,75.5,74.0,29.98,SW,223,0.0,-999.0,94,-99.99,,,0.04,weatherlink.com 1.10,2013-08-13 02:53:00,
2013-08-12 22:08:00,75.3,74.0,29.98,SSW,205,0.0,-999.0,94,-99.99,,,0.04,weatherlink.com 1.10,2013-08-13 03:08:00,
2013-08-12 22:23:00,75.1,73.0,29.98,South,188,3.0,-999.0,94,-99.99,,,0.04,weatherlink.com 1.10,2013-08-13 03:23:00,
2013-08-12 22:38:00,75.1,73.0,29.97,SSW,198,0.0,-999.0,94,-99.99,,,0.04,weatherlink.com 1.10,2013-08-13 03:38:00,
2013-08-12 22:53:00,74.9,73.0,29.96,WSW,239,0.0,-999.0,94,-99.99,,,0.04,weatherlink.com 1.10,2013-08-13 03:53:00,
2013-08-12 23:08:00,74.7,73.0,29.97,SSW,200,2.0,-999.0,94,-99.99,,,0.04,weatherlink.com 1.10,2013-08-13 04:08:00,
2013-08-12 23:23:00,74.7,73.0,29.97,WSW,250,1.0,-999.0,95,-99.99,,,0.04,weatherlink.com 1.10,2013-08-13 04:23:00,
2013-08-12 23:38:00,74.7,73.0,29.97,WSW,249,1.0,-999.0,95,-99.99,,,0.04,weatherlink.com 1.10,2013-08-13 04:38:00,
2013-08-12 23:53:00,74.7,73.0,29.96,West,261,0.0,-999.0,94,-99.99,,,0.04,weatherlink.com 1.10,2013-08-13 04:53:00,